Wind_Speed
18 19 20 20 20 21 21 21 21 20 20 21 22 21 19 19 20 20 20 20 21 21 21 21 21 21 22 22 22 23 26 29 30 27 21 23 26 25 26 27 20 11 9 9 10 7 6 7 7 6 5 3 4 2 4 4 2 2 3 5 6 6 6 6 7 5 3 3 2 2 1 3 6 6 4 3 4 3 3 4 4 6 7 7 13 27 34 32
19 19 20 21 21 22 21 21 21 21 20 21 22 23 22 20 20 20 20 20 21 21 21 20 20 20 21 21 21 22 25 28 26 25 22 16 19 19 20 21 18 16 13 10 10 8 3 2 2 2 5 3 3 4 5 4 4 5 3 5 9 6 5 3 5 5 4 4 4 3 3 3 5 4 5 5 5 3 3 3 4 6 8 11 17 27 30 31
19 20 20 21 22 22 22 21 21 22 22 21 21 22 23 23 21 20 20 20 21 21 21 20 20 20 20 20 20 21 23 23 18 16 10 10 14 17 16 13 15 17 16 12 8 9 7 2 1 1 4 4 3 4 5 4 5 5 3 7 8 4 4 4 4 6 6 5 6 7 5 7 8 4 3 5 4 2 2 2 3 5 8 12 15 20 25 27
19 20 21 21 22 22 22 22 22 22 22 22 22 22 22 23 23 21 20 20 21 20 20 20 20 19 18 20 19 18 19 15 8 5 4 10 12 19 19 9 11 15 14 12 7 7 6 0 2 1 3 4 3 3 5 5 4 4 6 7 4 4 6 6 6 7 7 6 6 6 6 9 10 5 4 4 3 4 4 6 5 8 12 15 14 16 19 20
19 20 21 21 22 22 22 22 22 23 23 22 23 23 22 22 23 23 21 20 21 20 20 19 20 19 18 19 17 16 12 5 2 2 6 12 18 20 20 14 4 13 13 13 9 7 6 0 3 1 2 3 4 4 5 7 4 3 8 7 4 4 5 6 6 7 7 7 7 6 6 8 7 6 6 5 5 6 5 6 7 12 16 18 17 15 15 16
20 20 20 21 22 22 23 22 22 23 23 23 23 23 22 22 22 23 22 21 21 20 20 19 19 19 18 19 16 11 3 3 7 1 3 10 21 21 16 14 4 9 12 12 10 5 4 4 3 2 2 3 6 6 5 7 7 5 6 5 5 6 6 6 4 5 6 7 8 5 4 5 6 8 6 4 7 8 5 5 9 14 17 19 18 17 17 18
20 20 20 20 21 22 23 23 23 23 23 23 23 23 23 22 21 22 22 22 21 20 20 18 19 19 18 18 14 7 3 10 18 11 9 17 23 20 14 12 7 5 12 12 9 5 4 5 5 4 3 3 6 7 6 6 7 8 7 3 4 6 7 8 6 6 6 7 7 2 4 6 6 8 5 7 11 8 7 3 11 13 14 17 17 18 19 19
20 20 20 20 20 21 22 22 23 23 23 23 23 23 23 23 22 22 22 23 22 20 20 18 18 17 17 16 9 6 6 18 25 19 20 24 21 16 14 12 10 5 9 13 10 6 4 6 6 4 4 6 5 6 7 6 7 8 8 5 5 6 7 7 7 8 8 8 5 3 7 9 9 7 7 13 16 8 2 4 11 12 14 16 17 18 17 16
21 22 22 21 21 21 21 22 23 23 24 24 23 23 23 23 23 23 22 23 22 21 20 19 18 16 15 12 6 7 11 20 22 17 17 16 15 13 13 13 13 12 7 12 12 8 5 5 8 5 3 6 5 4 5 6 7 7 7 7 6 7 7 7 7 8 8 6 4 6 10 10 9 5 7 14 13 4 4 8 10 13 15 15 15 16 15 16
23 22 23 23 23 23 22 22 23 24 24 25 24 24 24 24 23 23 23 22 22 21 20 19 17 15 13 9 6 9 8 9 10 8 8 10 13 15 16 17 15 14 10 8 9 9 7 5 7 5 1 3 3 4 4 6 5 4 6 8 9 9 8 7 9 9 7 6 5 7 10 11 7 3 6 9 4 4 8 8 9 12 13 13 13 13 14 16
23 23 23 23 23 24 23 23 24 24 24 25 26 25 25 25 24 24 23 22 22 21 20 19 18 15 12 7 6 10 6 3 7 7 10 14 19 22 23 23 18 13 10 8 8 9 11 10 6 2 2 3 2 4 5 6 4 4 3 5 8 9 9 9 10 9 5 5 6 8 9 11 7 4 8 7 3 7 9 9 10 11 10 11 12 12 11 11
23 23 23 23 23 24 23 24 25 25 25 25 26 27 27 26 26 25 25 24 22 21 19 18 17 14 12 7 11 21 16 13 20 22 24 26 29 31 28 25 18 13 11 7 9 12 11 12 9 5 3 2 2 2 4 4 4 5 5 4 6 6 8 10 10 9 7 5 6 6 5 9 7 6 10 7 7 7 8 10 10 10 9 10 11 10 9 9
24 24 24 24 25 24 25 26 27 28 28 27 27 28 28 28 28 27 26 26 23 21 19 17 17 16 12 6 16 30 28 28 34 36 39 36 32 32 29 24 17 14 13 12 13 16 14 13 10 7 5 2 3 2 3 3 2 5 5 3 5 5 6 7 6 7 8 6 6 5 5 8 7 9 11 5 9 8 8 9 9 8 8 9 10 9 9 10
25 25 25 26 26 27 27 28 29 30 31 30 29 29 30 31 31 30 27 26 25 22 18 16 16 15 10 9 20 30 27 30 36 38 40 35 26 27 29 24 17 14 14 16 18 18 17 17 10 6 5 4 3 6 5 4 1 3 3 3 4 4 4 4 7 7 7 5 8 7 6 8 6 10 12 4 8 9 9 10 9 8 8 8 9 9 10 10
25 25 26 26 27 28 29 30 30 31 32 32 30 31 34 35 35 32 28 24 22 18 15 14 14 11 7 11 20 23 18 21 30 32 32 29 21 18 22 17 11 11 12 15 17 16 15 14 7 3 4 4 4 5 4 3 2 2 4 4 4 5 4 4 6 9 8 5 8 10 6 7 7 9 11 5 7 8 9 10 9 9 9 9 9 9 9 6
26 26 26 27 28 29 30 30 30 31 32 31 31 34 35 34 31 27 24 19 15 13 10 9 9 9 6 8 13 14 11 12 20 23 21 21 17 16 20 16 8 9 11 13 14 14 14 9 3 4 3 4 6 3 1 3 3 3 4 4 3 5 3 4 5 7 10 7 6 10 6 4 5 9 10 5 8 8 7 9 9 9 9 9 9 8 8 7
26 26 27 28 29 30 30 29 29 31 30 31 34 34 33 29 21 17 15 8 6 8 10 7 5 6 7 9 12 13 9 9 13 17 18 17 16 17 18 11 5 6 7 11 11 9 7 5 3 3 3 3 4 5 3 7 7 3 1 3 3 4 5 4 6 5 9 8 7 9 7 5 5 7 9 6 9 9 8 9 9 8 7 7 7 7 8 8
26 27 27 28 29 29 30 27 28 30 29 32 31 29 28 21 13 7 5 6 7 4 7 8 5 4 6 8 10 11 9 10 13 16 21 21 18 19 16 7 4 4 1 5 6 6 3 2 2 2 3 5 5 8 9 7 6 4 3 4 3 2 5 7 5 5 7 8 7 7 6 7 8 8 7 7 7 9 9 9 8 8 8 7 7 7 8 9
26 26 27 28 28 28 28 26 27 28 30 31 27 25 22 13 7 2 8 9 5 2 3 5 6 5 6 6 11 16 14 16 18 18 22 21 15 14 14 8 4 5 4 2 4 6 4 2 3 5 7 10 9 10 9 3 5 8 5 5 5 4 4 5 5 6 6 7 7 7 6 6 9 9 8 7 5 9 8 6 5 6 8 7 7 7 9 9
26 26 27 27 27 27 27 26 27 28 30 28 23 20 14 7 6 2 2 1 3 7 8 7 8 10 11 11 16 22 19 16 15 14 15 12 5 7 8 5 3 3 5 5 4 5 5 4 7 10 9 10 10 9 7 3 3 8 5 4 5 5 5 5 5 6 4 6 6 7 7 7 9 9 9 9 5 6 7 6 6 7 9 8 9 10 10 8
26 27 26 26 27 27 26 27 27 28 28 22 15 10 4 3 5 4 5 6 10 11 13 15 15 16 16 17 23 21 13 10 10 13 17 13 4 5 4 5 6 5 5 4 2 2 5 8 12 10 6 7 8 8 7 7 5 5 5 5 4 4 5 5 5 6 3 4 4 4 6 8 9 9 9 9 6 7 8 7 8 10 10 8 11 12 10 8
26 26 26 27 28 27 27 28 26 28 26 15 8 5 3 5 7 8 8 7 9 10 13 18 17 17 19 24 30 20 9 10 12 14 16 11 8 7 5 6 7 6 6 4 2 3 7 11 10 8 6 6 7 7 8 8 8 4 4 5 4 4 3 5 6 6 2 3 4 4 4 7 8 9 9 8 8 7 8 9 9 12 11 9 12 11 10 11
27 27 28 30 31 31 29 27 27 27 19 9 10 11 8 7 11 12 7 7 9 7 10 14 13 13 15 19 24 17 10 10 11 14 10 6 7 8 6 6 7 6 8 9 8 7 7 8 7 8 6 7 6 7 9 7 7 6 3 4 4 4 3 3 5 6 2 3 3 3 3 6 6 7 7 8 8 5 3 6 9 11 13 14 15 13 12 15
29 30 31 32 34 31 29 28 27 20 11 12 19 15 7 8 14 14 5 4 9 5 8 13 10 8 11 12 10 10 10 8 8 13 9 6 5 6 7 6 7 7 9 12 11 8 6 3 9 10 7 9 7 7 10 8 5 5 5 6 4 4 5 4 3 5 3 3 1 3 3 6 5 6 8 7 4 3 2 7 7 7 10 12 14 12 11 14
31 32 31 32 31 29 30 26 18 10 10 18 18 8 5 11 16 14 4 2 6 5 6 7 5 5 9 9 6 8 6 6 10 11 6 6 5 4 6 5 5 8 11 11 9 7 6 3 10 13 10 11 10 8 11 10 6 5 6 8 7 5 6 5 3 4 5 5 3 3 1 6 5 6 9 7 3 3 3 8 10 8 9 11 11 11 10 10
31 31 31 32 30 30 26 14 7 9 13 16 11 7 11 13 14 11 2 2 5 4 3 2 2 4 5 3 5 5 1 4 12 14 10 9 5 2 4 4 3 7 9 8 5 4 5 6 9 14 13 12 11 9 11 11 7 6 6 9 8 6 6 5 1 1 2 2 5 2 4 5 5 5 8 9 7 6 4 7 10 10 11 13 12 11 11 11
32 32 33 32 30 28 20 9 10 12 9 10 10 11 13 11 10 7 1 2 4 3 4 2 2 3 4 2 3 4 1 2 5 12 14 12 7 1 4 4 3 5 5 6 5 4 7 9 9 13 13 12 11 9 9 11 8 5 6 11 8 7 7 5 3 2 2 3 5 1 4 2 4 6 7 7 6 4 5 6 8 9 12 15 14 12 13 14
35 34 34 32 29 25 17 13 13 9 7 10 11 11 13 10 7 3 2 2 3 2 2 2 3 3 4 6 4 6 3 3 2 5 12 16 9 3 3 4 4 6 8 8 7 4 9 11 11 13 13 11 10 7 8 11 8 4 6 11 9 8 8 5 4 2 2 2 5 3 2 1 4 7 5 2 3 4 6 8 10 11 13 16 15 13 14 14
37 36 35 32 27 19 11 8 9 7 9 10 9 11 12 7 3 2 3 1 2 1 1 0 4 4 4 8 5 8 7 2 2 1 9 15 11 4 2 3 4 6 10 11 7 2 7 11 10 10 11 9 7 6 8 11 7 4 7 8 6 5 4 3 4 3 1 2 7 5 3 1 4 7 5 1 2 6 7 8 9 9 11 13 12 11 12 12
38 37 34 29 23 13 7 7 9 7 7 7 9 11 8 3 2 2 0 1 2 2 0 1 4 3 5 8 3 6 8 5 3 0 5 7 7 5 2 2 3 3 7 9 7 5 3 7 8 7 8 6 7 7 8 10 7 4 6 6 4 2 1 1 1 3 2 5 8 7 6 4 3 6 4 3 4 6 7 7 7 7 9 12 10 9 11 12
38 37 31 22 15 8 4 7 8 7 6 8 10 8 3 2 3 1 1 2 3 3 1 3 5 5 7 7 3 3 5 5 3 1 3 4 6 5 3 2 2 1 4 6 7 10 6 5 7 5 6 6 7 8 7 8 8 5 5 5 3 2 1 2 2 2 4 6 6 6 7 6 4 5 6 6 7 7 10 11 12 13 13 13 12 12 12 12
38 33 22 13 8 5 5 7 8 8 8 7 6 3 2 2 0 2 2 3 3 2 1 4 7 8 10 8 3 3 3 3 3 3 3 3 5 5 4 4 2 3 4 5 6 8 7 5 5 3 7 9 8 7 6 7 8 6 5 6 5 3 2 4 3 2 5 5 4 5 6 4 5 7 10 10 8 8 11 12 15 17 16 14 13 14 13 12
37 26 14 8 6 6 6 7 7 6 5 2 1 2 2 1 2 3 3 2 2 1 2 5 10 11 11 7 2 4 3 3 4 4 3 4 4 5 5 6 4 3 3 4 6 5 4 3 5 5 6 9 10 7 7 7 8 9 6 7 8 5 5 8 5 2 3 4 5 4 4 3 4 5 10 12 10 12 12 11 14 17 17 17 15 13 12 10
31 17 10 8 7 6 6 6 3 2 3 2 2 2 1 2 3 3 3 3 3 3 4 6 11 11 7 4 2 2 2 3 4 6 5 4 4 4 5 7 7 2 2 5 5 5 5 3 6 8 5 8 12 9 7 7 8 10 5 5 5 5 6 6 4 3 3 3 3 2 3 4 3 4 8 9 10 11 9 6 7 9 8 9 9 10 10 10
23 11 8 9 8 7 6 3 1 1 1 2 3 1 1 2 3 3 3 3 3 5 6 8 9 8 5 4 4 4 1 3 4 5 5 4 5 4 3 4 6 4 2 4 3 4 5 5 5 7 6 8 12 8 7 8 7 8 4 5 5 5 5 2 3 6 5 2 1 2 3 4 4 5 6 4 5 6 6 6 7 7 5 7 8 10 11 11
21 10 6 9 8 7 6 2 2 2 1 3 3 1 2 3 3 2 3 4 5 7 10 9 5 3 5 4 3 4 1 1 2 3 3 4 4 4 3 2 5 6 3 3 3 3 5 4 3 6 8 9 11 10 9 9 7 5 5 6 4 4 4 2 2 1 4 4 3 1 3 4 3 4 6 6 1 3 5 7 7 8 9 11 11 11 12 12
23 13 6 8 8 6 5 2 3 2 1 3 1 2 3 3 4 4 4 6 7 6 7 6 3 3 5 3 2 5 4 2 1 1 2 4 2 4 5 3 3 7 6 4 1 1 5 3 4 7 11 10 8 11 10 9 7 6 7 7 3 3 1 2 1 2 4 3 4 1 4 4 1 3 5 6 0 4 4 6 7 7 10 11 12 12 12 11
20 11 5 7 7 4 4 1 3 2 1 1 3 4 4 4 4 5 5 8 8 6 4 4 1 2 3 3 3 6 6 3 4 3 2 3 2 5 7 4 3 8 8 6 1 2 2 2 5 7 12 9 6 8 9 9 9 7 6 6 5 3 2 1 2 2 2 2 2 1 2 3 3 4 3 0 5 5 4 6 8 10 12 12 11 12 12 10
13 5 3 5 5 4 2 1 3 1 1 2 3 4 3 5 6 7 7 8 7 5 4 2 1 1 2 3 3 5 5 3 3 3 1 3 2 5 8 5 4 7 7 7 3 3 1 0 3 5 10 8 5 6 7 9 9 6 6 7 5 3 3 3 3 3 3 3 3 1 2 3 5 5 5 7 8 7 7 7 9 12 13 12 12 12 12 12
7 2 1 4 5 3 1 1 2 1 1 3 3 3 5 6 8 9 9 7 4 3 3 2 1 2 3 3 2 2 3 3 2 2 1 3 2 4 6 7 6 5 7 8 5 2 1 1 2 2 5 7 5 6 8 9 8 5 6 7 5 2 2 3 2 2 4 4 3 3 1 5 6 4 6 9 9 9 11 10 10 11 11 10 11 12 13 13
4 1 1 5 6 1 1 1 1 1 2 3 3 4 6 7 9 11 10 7 5 4 4 3 2 2 3 3 2 1 2 3 2 0 2 2 3 2 4 8 7 4 6 6 5 2 1 1 1 2 3 6 6 5 7 9 8 7 5 5 6 5 3 3 2 2 2 4 4 5 3 6 6 3 4 6 7 10 12 12 11 10 11 11 11 12 11 10
2 1 4 8 7 2 1 2 2 2 2 4 4 6 8 8 8 8 7 6 4 3 3 2 3 3 2 2 2 2 2 2 1 1 2 2 3 3 5 8 8 6 6 4 3 3 2 0 1 3 3 6 5 5 9 11 10 8 5 4 5 5 5 5 4 3 1 2 2 4 2 6 6 3 4 5 6 8 9 9 10 10 12 13 12 11 8 6
1 3 7 8 4 3 2 2 3 2 3 6 8 9 9 6 5 6 6 5 4 2 1 2 2 2 1 1 2 3 3 2 2 3 2 3 4 5 6 7 8 6 5 4 2 3 3 1 2 4 2 2 2 1 7 11 9 6 4 4 5 6 5 5 5 4 4 3 2 3 1 5 6 4 4 6 6 6 6 7 8 7 7 10 11 9 7 8
3 4 4 6 5 2 1 2 4 5 6 9 11 10 7 3 4 5 6 5 4 2 2 2 2 2 2 2 3 4 3 1 2 3 3 3 3 6 5 6 10 9 5 4 4 4 4 2 1 2 1 3 2 2 2 6 7 5 4 4 5 6 7 4 2 3 2 3 4 5 3 6 6 4 2 1 3 5 7 7 6 4 3 5 7 7 8 9
4 2 2 5 5 1 1 1 3 6 9 11 11 10 7 3 4 5 6 6 5 3 2 3 2 1 2 4 4 5 3 2 3 3 2 3 4 5 4 2 8 10 7 7 7 5 4 2 2 2 3 5 5 4 4 5 4 2 4 6 4 7 9 5 3 3 1 3 3 5 4 6 6 5 5 4 4 4 5 5 5 4 5 6 6 7 8 9
2 1 2 5 3 1 1 2 2 4 7 9 8 7 8 8 6 4 5 5 4 3 3 3 2 0 3 3 3 3 3 4 5 3 3 3 3 5 5 5 5 8 10 11 8 5 2 2 3 5 5 5 5 5 5 5 5 3 5 7 4 5 7 6 5 4 4 3 2 3 6 4 7 6 6 5 2 5 4 5 6 6 7 7 7 8 8 8
1 1 2 4 3 2 3 2 2 4 6 7 5 5 8 10 9 5 2 2 3 3 2 3 2 2 3 3 3 3 4 4 3 3 4 3 4 7 8 4 4 8 12 11 6 4 1 2 2 5 5 5 5 5 4 6 7 6 7 8 5 5 7 8 5 5 5 5 2 7 5 3 6 7 6 4 1 3 5 5 5 6 7 7 8 9 10 10
2 1 1 2 2 3 5 5 7 9 11 8 3 4 9 11 9 6 3 3 4 2 1 1 2 3 6 8 6 4 6 6 2 2 3 3 4 7 6 3 4 5 9 6 2 4 2 3 3 4 3 4 4 1 5 7 6 5 7 8 7 7 7 7 5 7 7 6 6 6 5 5 6 6 4 1 1 2 2 3 4 5 7 8 9 10 10 11
3 2 1 2 2 4 7 10 11 11 11 9 4 3 8 11 10 8 4 4 4 2 2 2 3 6 9 6 3 4 4 4 3 2 2 3 5 6 4 4 5 2 2 2 1 3 3 3 4 3 3 2 6 3 5 7 5 5 4 3 7 8 9 7 5 5 6 5 5 7 7 7 7 6 4 1 0 0 2 3 4 6 7 8 9 10 10 10
2 2 3 2 3 5 6 8 8 7 7 7 4 4 7 9 10 10 7 5 5 4 3 5 7 9 9 5 3 4 4 3 4 5 2 4 5 3 3 1 2 5 4 1 1 2 2 3 3 1 3 4 7 6 8 11 10 8 7 6 4 5 5 4 3 3 4 1 2 5 7 5 6 4 1 2 3 5 4 4 5 6 7 9 10 10 10 11
5 6 6 4 4 5 5 4 5 5 4 4 4 6 8 9 11 12 8 5 3 5 7 9 11 9 6 5 4 6 6 5 7 8 6 5 4 2 2 1 2 5 6 3 2 1 2 1 2 3 4 4 6 5 10 12 11 9 8 9 7 3 4 3 3 2 4 4 3 4 6 5 6 2 3 5 4 4 4 5 6 6 7 10 11 9 10 10
9 7 6 4 4 4 4 5 5 4 3 4 6 9 10 11 13 12 7 2 1 6 8 8 10 8 4 5 6 5 5 6 8 9 8 7 7 4 4 5 3 3 3 2 2 2 2 3 1 4 4 3 6 4 5 8 9 5 4 4 5 2 3 3 3 3 0 4 6 5 5 6 3 2 4 3 0 3 5 5 4 6 8 9 11 12 11 10
Wind_Direction
343 340 339 339 338 335 332 328 328 326 321 318 318 317 313 312 312 313 313 309 308 308 309 311 313 315 314 316 317 316 318 316 315 312 293 287 297 294 283 272 268 253 223 259 264 255 283 272 258 226 175 154 178 181 193 192 170 165 167 211 223 210 209 182 182 199 212 276 269 228 210 208 271 306 291 312 15 8 8 16 36 43 49 85 114 125 135 143
341 339 339 339 338 336 333 330 329 328 323 317 316 316 314 313 311 310 311 312 311 309 310 311 313 315 315 318 318 318 319 316 311 295 285 316 339 325 299 274 251 233 234 259 243 211 204 253 286 180 155 167 205 184 190 183 180 193 151 205 224 203 207 187 184 222 237 258 290 305 341 321 275 309 323 306 324 4 7 356 55 67 75 95 115 127 138 146
339 338 339 339 339 337 335 333 330 327 324 321 318 317 315 313 311 310 308 309 312 312 312 311 313 316 317 319 317 320 321 316 306 281 291 6 11 357 333 281 234 222 229 237 229 205 196 201 356 108 160 198 221 185 191 195 191 192 178 221 226 205 249 256 215 235 250 269 302 304 327 325 297 308 335 300 296 313 235 246 101 122 128 124 129 136 144 149
338 337 339 338 338 336 335 335 332 329 327 324 321 319 316 313 310 311 309 307 308 311 312 313 315 313 316 320 316 323 325 313 288 252 34 34 15 12 7 325 228 207 212 218 220 222 221 243 24 70 162 205 240 195 191 206 195 182 203 223 210 186 246 247 229 246 263 274 278 292 320 304 296 307 295 278 284 289 243 223 193 162 146 140 143 146 150 153
339 337 339 338 336 336 336 334 332 332 329 325 322 320 318 315 310 308 308 307 305 306 311 314 315 314 315 318 320 329 329 309 293 144 86 38 9 3 14 11 259 203 200 213 226 239 239 163 70 65 167 200 224 204 206 212 194 206 217 220 213 195 235 235 224 237 247 266 269 283 300 282 294 306 286 280 254 249 234 221 193 164 156 153 153 153 156 159
339 337 338 337 336 336 335 334 333 332 329 326 324 320 317 316 312 307 305 306 306 305 308 312 317 316 310 317 326 323 298 261 314 293 148 0 346 342 3 17 342 216 212 223 233 225 197 156 134 166 169 199 220 218 221 208 195 229 232 203 210 218 240 249 236 241 233 248 261 261 267 276 309 298 281 277 245 237 253 224 171 165 163 156 152 155 161 166
337 335 335 336 337 336 335 334 332 331 329 327 325 322 319 316 314 309 304 303 306 307 307 309 316 318 314 324 326 295 226 259 275 259 264 312 323 328 344 3 11 238 226 230 235 214 173 164 173 173 165 209 223 223 233 226 210 223 239 220 214 221 236 252 257 266 258 244 246 251 286 285 286 287 303 294 268 265 290 227 161 160 155 151 155 162 167 169
338 336 336 335 335 334 334 334 332 330 328 327 325 323 320 317 315 312 308 303 302 305 306 306 310 319 321 327 318 277 244 250 260 270 286 302 310 321 337 352 14 338 242 232 233 214 186 172 179 176 187 221 208 202 215 231 238 225 234 247 237 235 240 252 256 261 267 260 249 246 267 262 253 272 294 281 278 285 310 143 148 150 150 158 165 167 167 166
341 340 339 337 336 334 333 333 332 329 327 327 324 322 320 317 315 313 311 305 300 299 302 304 304 312 320 320 303 277 257 253 266 284 291 301 304 311 332 340 354 349 295 245 238 218 208 183 193 196 188 228 216 205 198 201 238 224 218 242 242 246 254 259 262 256 259 262 242 247 262 261 254 268 278 270 272 267 122 128 143 149 158 166 168 168 166 167
340 339 339 338 338 336 336 334 330 328 327 326 323 322 320 317 315 311 309 306 302 297 296 300 299 306 312 305 278 268 264 266 278 278 277 304 309 306 317 325 334 336 324 285 253 216 214 204 201 202 216 270 233 229 214 196 238 222 198 236 239 242 252 250 259 258 257 262 231 239 264 267 253 210 258 273 261 165 126 127 151 156 164 168 168 171 170 172
338 337 336 336 336 335 337 334 329 326 325 324 323 322 319 316 313 309 306 303 300 296 293 293 294 298 297 291 263 253 246 268 280 280 283 298 305 301 303 311 320 315 308 311 285 240 228 233 229 198 213 253 258 266 251 218 251 274 228 261 253 243 249 241 250 253 251 263 216 212 255 265 253 195 240 255 167 157 142 142 163 165 167 167 168 172 173 176
336 335 334 334 333 333 333 332 330 326 325 324 321 319 318 315 311 307 304 300 298 294 289 287 288 288 283 270 243 242 245 268 282 288 286 287 291 292 296 301 302 294 285 287 286 275 258 249 242 229 230 212 193 257 265 234 232 266 267 284 275 263 256 239 242 245 234 240 184 172 260 264 249 230 242 229 164 166 154 157 170 168 167 164 167 171 175 176
335 334 333 333 332 332 331 331 331 328 327 324 319 318 315 311 308 305 301 297 294 289 285 281 282 282 273 255 250 251 259 273 280 285 282 282 287 288 290 291 287 283 274 260 264 276 277 269 249 234 258 228 198 240 293 291 206 235 240 233 263 280 265 225 216 234 233 230 170 156 257 254 247 247 250 212 151 161 156 170 177 166 167 165 168 172 174 175
335 334 333 333 332 332 332 331 331 329 327 324 321 318 313 311 309 303 298 292 288 283 277 273 276 278 263 258 270 269 273 275 274 276 276 278 286 287 286 281 274 272 269 260 261 270 274 272 254 229 255 226 245 309 332 330 226 205 212 196 211 235 256 207 189 207 223 219 165 170 245 250 257 262 257 219 156 170 164 177 182 167 169 168 172 174 177 182
335 335 334 334 333 332 332 331 330 328 326 324 322 319 317 316 313 310 304 291 283 275 265 268 268 266 267 269 277 282 288 279 268 268 273 277 276 276 279 276 267 265 267 262 260 263 262 259 237 203 252 202 211 293 330 333 305 196 200 208 193 203 270 264 208 195 205 223 162 171 238 256 248 255 257 218 166 189 177 179 183 170 170 168 174 176 176 166
335 335 334 333 332 331 331 329 328 327 325 324 323 321 319 318 318 319 311 287 268 256 247 264 254 235 254 273 283 292 288 272 267 273 284 280 261 252 264 271 273 267 267 265 260 256 247 242 210 190 223 192 185 196 355 309 271 232 201 199 181 183 235 278 256 208 195 216 186 184 220 253 240 244 247 204 166 195 193 184 183 173 174 167 171 178 164 122
334 333 332 332 330 330 329 328 328 325 324 325 326 324 321 321 323 325 319 287 223 219 223 234 235 224 245 270 291 293 273 267 278 288 295 289 272 257 254 259 267 256 268 272 258 244 229 214 199 194 196 201 170 145 187 231 224 232 165 182 207 174 179 218 270 248 184 200 218 204 213 226 248 252 243 216 172 186 197 192 190 176 168 158 163 165 144 128
332 331 330 330 328 329 328 327 327 324 326 328 328 326 324 328 332 348 40 96 123 160 219 230 230 248 252 246 259 262 264 283 289 292 292 293 284 256 234 214 212 200 229 285 238 201 190 200 191 173 187 201 189 172 196 215 189 177 148 168 218 196 190 199 226 240 178 189 216 203 209 226 249 265 254 242 184 183 205 200 190 170 153 150 156 150 138 144
330 329 329 328 328 328 326 326 325 325 328 330 330 330 331 342 350 44 108 100 97 147 241 231 196 219 269 262 246 249 267 287 291 289 283 286 280 238 215 217 221 163 163 211 194 183 171 166 176 191 205 201 199 195 200 206 140 168 169 152 181 199 228 217 221 243 188 186 219 205 203 218 237 254 258 256 192 183 211 195 165 152 147 152 151 146 148 154
330 328 328 327 327 326 325 325 323 324 329 331 336 341 344 2 356 325 139 48 255 243 253 248 216 228 261 276 267 266 278 283 280 275 266 273 268 192 186 208 203 160 183 174 169 184 157 178 211 207 205 195 198 197 198 242 156 160 170 162 177 187 232 243 247 265 201 184 232 203 195 216 229 239 245 252 228 200 206 170 151 157 157 161 157 154 152 151
329 329 329 328 326 325 324 323 320 323 328 328 339 357 348 319 326 317 314 277 242 239 248 247 238 241 249 254 261 271 292 281 257 262 264 267 241 175 178 180 176 188 188 158 158 173 160 205 219 203 187 180 190 184 176 220 221 164 167 191 207 193 228 251 249 269 209 171 250 187 186 231 236 234 235 239 239 230 210 173 160 167 169 162 155 154 146 143
330 329 328 329 329 327 325 321 316 319 323 320 334 348 270 289 306 298 308 292 253 231 240 249 244 249 251 251 258 263 277 271 266 273 264 243 199 181 178 176 185 183 161 161 202 180 198 220 208 173 166 163 175 176 170 200 219 209 160 169 216 213 242 277 271 276 215 160 259 238 217 248 251 246 241 233 224 230 217 186 171 168 166 159 156 152 145 151
331 329 329 330 330 327 324 319 314 315 317 313 317 304 273 302 323 308 296 295 284 236 228 248 244 250 254 256 259 250 239 249 263 272 254 192 181 184 174 181 188 167 159 187 194 182 207 220 177 158 165 164 175 178 171 193 213 216 179 159 215 218 194 241 271 279 234 162 215 219 266 278 282 285 271 249 223 221 216 172 177 177 168 166 166 161 157 161
331 330 329 328 327 327 323 318 314 313 312 311 310 301 279 308 326 323 303 274 291 262 228 243 242 242 251 260 249 213 221 219 224 258 246 174 181 183 176 178 173 177 188 196 200 205 229 205 155 160 171 172 182 181 177 196 209 206 199 183 203 216 196 204 266 299 328 348 179 138 331 296 279 284 278 276 237 191 146 140 173 189 168 166 165 165 170 167
331 329 327 327 326 326 324 319 314 314 314 311 308 313 324 316 324 328 317 267 293 271 238 243 238 237 246 251 206 182 220 215 211 241 231 176 181 175 185 178 169 199 199 190 203 225 248 238 160 166 183 183 188 194 187 192 200 217 213 191 190 202 220 238 297 352 25 346 283 148 271 281 275 266 259 273 263 209 181 158 175 176 158 165 164 168 178 171
329 327 327 326 326 328 329 319 308 321 314 306 306 324 322 318 328 331 305 271 291 275 288 262 209 252 264 233 181 175 241 240 221 219 221 228 230 175 188 183 177 207 191 175 209 233 227 235 185 175 184 187 195 207 195 183 188 223 197 173 186 196 217 239 246 69 104 263 277 153 188 260 303 285 253 259 253 223 195 177 180 169 163 174 173 173 176 171
328 327 327 326 327 331 327 304 308 317 299 298 315 325 328 330 327 323 74 338 291 265 299 281 212 265 286 264 178 161 188 280 219 201 204 220 231 179 184 186 169 189 170 162 212 213 184 206 205 185 182 189 202 206 191 178 183 223 168 155 183 203 215 220 151 161 215 252 293 13 139 216 296 271 248 248 244 212 186 187 187 175 173 179 180 181 180 178
330 329 327 326 328 326 314 295 301 299 280 307 325 329 337 338 315 311 85 348 288 265 289 261 262 269 284 297 246 198 241 7 51 189 182 185 191 156 172 201 188 174 171 182 207 179 167 196 204 187 187 198 200 184 165 168 183 220 156 151 182 207 220 218 146 187 275 312 296 313 108 159 272 270 270 227 189 202 200 197 194 186 183 185 186 186 184 182
330 329 327 328 328 325 319 291 278 286 302 318 329 330 331 326 320 56 91 348 294 300 79 85 288 283 296 305 262 221 255 326 17 204 159 168 183 182 186 216 211 190 185 195 215 174 166 197 199 185 196 201 180 163 157 169 192 203 149 146 174 194 213 211 173 189 210 241 255 246 168 172 276 280 296 16 193 213 205 204 203 191 188 192 189 186 182 181
330 329 330 332 328 329 335 291 280 306 324 324 323 325 327 332 44 58 334 309 301 279 46 277 291 314 307 306 289 213 230 247 293 351 142 157 176 194 247 188 188 208 194 194 219 245 209 187 190 192 204 188 159 170 173 173 182 165 142 150 186 198 66 46 152 134 166 242 249 222 172 165 266 280 266 218 217 201 177 193 207 188 186 194 190 185 184 185
330 331 334 336 330 326 304 286 304 327 319 314 317 321 336 26 79 110 273 313 285 274 297 270 275 300 301 306 316 207 210 237 276 202 165 148 150 183 243 208 171 141 181 180 206 244 262 201 195 191 178 162 159 183 186 175 180 175 146 146 184 236 4 354 5 99 199 243 256 211 165 156 216 265 256 232 231 205 182 186 189 187 190 191 187 186 189 190
333 336 339 346 341 309 263 283 311 314 305 307 316 341 54 22 33 213 275 331 301 286 316 291 296 308 309 313 300 206 205 228 225 202 185 138 147 183 195 197 172 125 176 187 182 225 255 237 226 201 170 170 168 176 180 180 188 190 160 149 170 187 191 222 223 195 219 242 250 194 156 167 224 242 252 248 239 214 202 192 181 183 190 189 186 186 188 188
337 342 346 1 354 315 296 307 308 301 310 327 334 38 85 318 287 236 263 306 279 280 312 296 302 306 310 317 282 208 221 220 186 185 188 138 142 183 196 209 206 140 166 176 159 191 247 282 243 213 188 179 175 173 177 185 188 191 182 164 178 179 185 210 214 218 243 242 241 197 158 231 262 250 246 240 227 209 203 198 185 184 188 188 186 180 182 185
341 347 352 8 8 340 330 328 305 273 320 15 68 50 59 264 270 268 278 267 254 278 297 304 306 309 322 356 341 286 212 214 182 163 169 146 145 182 204 215 221 213 122 150 161 179 196 253 224 203 191 175 184 189 168 157 176 197 184 134 175 191 180 201 201 191 217 242 250 196 153 191 197 239 248 236 230 211 188 174 174 182 182 173 171 167 174 186
344 351 353 10 19 8 359 349 194 185 332 42 60 39 283 258 264 282 278 256 277 300 299 302 302 308 348 24 343 336 133 204 195 156 154 158 165 191 201 201 208 212 143 151 185 181 188 253 238 200 202 180 184 189 150 143 174 197 161 130 196 197 149 147 172 174 170 163 219 189 196 216 203 250 300 316 251 211 148 124 141 158 151 146 166 179 181 187
349 1 3 5 8 7 3 358 158 156 116 58 38 265 236 248 253 272 278 274 303 316 313 312 308 331 357 11 340 333 1 196 195 169 155 148 160 186 199 209 187 188 175 155 197 173 168 267 277 180 207 205 182 177 170 168 170 169 175 188 198 161 130 121 188 150 102 146 225 217 212 278 303 268 327 7 293 192 131 134 152 159 157 161 180 190 189 189
347 350 345 343 350 1 357 349 161 156 67 67 29 255 243 247 239 240 277 297 305 311 317 324 0 25 348 332 333 335 332 334 340 330 129 137 180 188 194 236 182 187 198 160 190 198 153 250 274 173 198 221 183 171 186 183 158 155 193 193 121 93 121 95 137 4 59 156 251 295 191 244 277 235 319 14 132 206 149 141 148 154 162 175 187 190 192 192
334 327 312 324 342 4 354 310 180 181 41 48 273 266 239 233 238 241 272 301 303 298 307 313 337 31 353 324 325 331 332 351 4 357 116 150 251 197 183 214 200 202 202 152 138 289 135 256 271 181 188 210 179 168 189 193 183 176 175 163 141 167 214 111 153 188 100 176 247 326 243 236 195 215 270 285 212 209 155 145 160 172 179 184 185 185 187 186
333 324 314 328 346 7 359 221 169 133 1 243 268 276 249 253 265 267 280 296 296 286 288 275 227 302 317 309 311 323 334 349 353 346 148 160 241 210 181 178 212 215 189 151 168 275 355 227 257 193 178 180 172 176 189 199 199 179 147 161 170 160 161 166 168 159 156 185 202 225 315 263 231 218 187 192 212 190 162 177 188 188 190 187 181 181 182 182
344 340 291 330 350 6 63 132 132 67 277 240 239 262 273 282 285 285 287 288 283 263 255 243 251 303 296 290 307 330 331 316 312 328 232 185 224 241 193 176 209 214 161 158 187 259 317 240 260 249 175 168 187 201 193 189 187 171 166 177 177 149 144 156 154 139 138 155 176 169 221 259 254 218 177 194 204 187 181 190 198 199 194 190 187 185 183 185
338 10 282 338 347 323 121 44 255 237 250 254 256 259 278 295 294 296 292 276 261 241 241 263 272 276 289 296 324 352 306 297 283 274 286 223 190 250 218 190 196 185 144 169 200 204 238 236 287 297 185 180 198 192 173 174 173 171 177 183 173 165 144 129 178 243 122 134 167 159 190 263 261 210 207 220 203 197 196 190 196 201 190 187 192 189 188 186
329 1 300 333 336 269 285 320 251 227 254 277 289 272 280 292 290 298 302 288 282 253 229 246 254 253 267 268 287 304 292 298 275 215 278 256 201 224 230 195 185 170 156 179 208 189 183 203 308 286 227 212 217 179 162 167 168 165 171 181 168 160 140 135 177 233 159 140 153 124 145 269 262 212 219 244 227 213 207 197 199 200 189 187 187 180 171 152
347 298 305 338 337 247 311 312 259 282 280 288 300 283 274 279 281 296 303 297 308 308 233 232 247 250 242 223 261 290 298 298 258 238 259 277 239 223 212 184 182 180 161 168 188 179 183 210 283 294 278 252 320 43 163 166 160 161 177 171 161 168 162 152 170 183 174 180 137 105 188 270 273 251 221 233 238 223 215 214 214 211 198 186 177 165 143 127
316 283 295 338 329 273 344 342 311 316 310 311 314 303 286 249 243 278 297 303 308 313 299 275 232 217 247 257 249 266 302 316 254 260 256 272 261 239 233 195 191 190 172 176 177 174 195 198 234 305 67 99 58 47 153 178 176 173 166 152 154 154 142 137 150 135 169 209 149 129 211 255 266 281 287 212 183 200 217 215 206 208 194 171 159 143 131 129
312 270 249 312 314 265 122 345 315 314 319 322 318 316 320 300 240 244 265 287 288 283 292 271 229 200 254 276 270 269 272 203 224 292 277 277 289 264 280 270 203 191 185 195 179 160 190 187 132 147 144 149 171 189 193 186 184 160 125 134 149 146 142 154 151 114 198 229 135 134 211 261 285 309 341 20 102 151 199 183 160 148 136 139 139 137 140 141
340 354 299 313 323 95 229 268 286 306 317 323 317 316 329 329 311 265 242 258 262 255 267 257 249 230 232 255 282 281 259 219 230 288 304 291 285 263 286 301 232 191 189 198 181 132 141 189 152 154 164 174 188 210 211 155 132 126 129 134 143 141 132 120 117 147 191 171 142 209 210 256 302 306 315 329 87 137 168 167 155 142 130 135 140 138 136 136
33 11 337 335 329 333 324 298 321 320 306 312 312 304 320 325 324 317 263 245 257 259 265 250 252 282 296 316 322 296 307 301 246 255 287 272 262 279 287 278 206 193 196 198 180 131 104 282 219 161 172 213 215 202 188 139 138 155 145 139 149 145 121 107 132 187 163 123 263 261 218 211 271 270 270 290 306 166 179 173 159 146 134 135 135 131 130 132
21 358 319 350 314 307 324 312 314 317 308 306 295 284 315 325 327 331 313 281 286 279 272 263 247 296 338 348 345 320 323 333 309 254 291 290 302 318 330 62 99 187 199 197 168 147 155 269 235 164 168 258 285 197 147 134 139 142 133 143 154 154 146 141 175 194 155 152 224 229 194 205 241 260 268 276 290 257 200 152 129 123 124 127 130 131 132 135
4 323 290 352 298 279 289 288 295 305 306 310 307 293 319 324 321 324 313 287 301 284 232 277 304 333 340 337 323 313 318 327 312 289 312 327 325 334 6 54 39 23 173 195 238 147 151 259 240 163 124 349 340 0 109 111 95 66 66 131 150 156 164 161 176 177 146 167 214 181 179 224 244 252 273 300 254 202 119 115 114 118 123 125 124 125 128 137
2 311 316 320 283 278 274 278 295 300 299 312 319 313 320 318 319 326 312 279 293 303 297 310 320 329 327 306 264 273 272 269 268 256 283 332 324 342 23 40 353 358 9 355 285 135 143 250 260 115 80 0 344 16 77 91 89 71 42 20 56 116 134 123 119 123 109 116 238 164 172 238 265 244 261 40 92 111 126 146 136 131 131 124 120 125 132 138
336 299 306 302 293 306 296 291 311 306 303 332 332 323 325 318 319 323 307 267 268 297 309 320 319 316 310 299 282 263 258 259 256 252 260 280 274 292 348 338 11 0 349 342 333 1 129 196 312 65 73 332 333 41 81 88 82 67 41 9 0 50 122 106 90 123 152 161 137 131 168 233 262 235 59 45 82 125 160 164 141 138 138 128 125 125 129 137
339 303 303 299 286 307 313 315 322 312 313 341 327 320 316 307 311 317 308 297 287 277 278 291 300 301 308 309 292 259 253 267 266 266 263 254 251 251 266 275 295 321 304 317 336 300 130 112 58 75 88 303 320 26 82 79 63 30 349 333 320 311 128 100 50 15 12 149 138 149 203 233 231 134 80 45 97 190 194 182 160 154 146 134 133 135 140 150
Height
825 823 822 820 818 816 815 813 812 810 809 807 806 804 803 802 800 799 798 796 795 793 792 791 789 788 786 785 783 781 778 775 771 770 767 755 751 752 750 751 752 754 754 754 755 754 754 755 754 755 757 758 759 758 758 758 758 762 768 775 774 769 765 756 754 753 748 744 742 740 739 743 742 735 728 725 728 730 730 728 727 727 725 726 727 727 732 739
824 823 821 819 818 816 814 812 811 809 808 806 805 803 801 800 799 798 797 795 794 792 791 790 789 787 786 784 782 780 777 773 770 765 758 752 751 749 746 747 749 752 753 753 753 753 754 754 754 755 756 757 757 756 757 756 756 761 766 770 765 760 756 748 747 747 744 744 741 740 740 741 740 737 730 731 735 733 735 735 732 733 732 730 729 731 735 739
824 822 821 819 817 815 814 812 810 809 807 805 804 802 800 799 797 796 795 794 793 791 790 789 788 787 785 783 781 780 776 773 768 758 752 750 749 747 744 744 746 749 751 752 752 752 753 753 754 755 756 757 755 754 756 754 754 757 761 765 758 752 751 746 745 744 742 742 742 742 741 739 736 734 732 735 736 735 738 738 736 736 736 734 733 733 736 740
823 822 820 818 817 815 813 811 809 808 806 804 802 801 799 798 796 795 794 793 792 790 789 788 787 786 785 783 781 779 777 772 761 751 748 749 746 745 743 742 744 748 750 751 752 752 752 753 753 754 756 757 755 753 755 752 752 754 755 756 752 749 750 746 743 742 740 741 742 742 742 740 734 731 733 735 739 738 734 732 732 734 733 734 735 735 737 739
823 821 819 818 816 814 812 810 809 807 805 803 801 800 798 797 795 793 793 791 790 789 788 788 786 785 784 782 781 779 779 769 752 746 748 746 745 745 744 743 745 748 749 751 751 751 752 753 753 754 756 757 755 754 752 747 747 750 747 747 746 747 749 744 741 741 740 740 741 743 744 740 733 732 732 733 739 736 727 724 726 728 728 729 732 735 738 740
822 820 819 817 815 813 811 810 808 806 804 802 800 799 797 796 794 793 791 790 789 788 787 786 785 785 783 782 781 779 780 765 746 746 746 745 747 746 746 746 746 748 749 750 750 751 751 752 754 755 755 755 755 753 749 744 744 748 745 742 743 744 745 742 739 739 739 740 741 742 741 736 736 735 730 731 733 726 720 719 721 723 723 724 728 733 737 739
821 820 818 816 815 813 811 809 807 805 803 801 799 797 796 794 792 791 790 789 788 786 786 785 784 784 782 782 780 779 780 763 744 746 745 745 748 746 748 747 747 749 749 750 750 750 750 751 754 754 754 754 753 751 748 743 742 747 746 742 742 742 742 740 738 738 738 740 740 740 739 736 739 737 730 729 725 720 719 718 719 722 723 726 729 731 733 736
820 819 817 815 814 812 810 808 806 804 802 800 798 796 794 792 791 790 788 788 786 785 785 784 784 783 782 782 779 779 776 755 742 746 747 747 748 747 749 747 748 749 749 750 749 751 751 751 752 752 754 752 749 748 746 746 745 745 746 742 741 740 739 738 738 738 738 738 738 739 739 738 737 736 733 728 721 719 720 718 720 723 725 728 729 731 734 737
819 817 816 814 812 811 809 807 805 803 801 799 797 795 793 791 790 788 787 786 784 785 783 783 783 782 783 781 781 779 763 745 744 748 747 747 747 747 748 748 749 749 749 749 748 751 751 751 750 749 751 749 747 746 743 748 747 742 743 741 740 739 737 737 737 737 737 737 737 739 739 736 733 735 734 725 719 720 720 722 723 724 727 728 730 732 734 737
818 816 815 813 811 809 807 806 804 802 800 798 795 793 792 790 788 786 785 784 783 783 781 782 781 781 782 779 782 776 752 743 747 746 746 747 746 746 747 748 749 749 749 748 748 749 749 749 748 746 749 747 745 745 743 746 743 736 739 738 737 738 736 736 736 735 736 735 735 739 739 734 731 736 735 723 720 721 721 725 726 726 729 729 731 733 734 736
817 815 814 811 810 808 806 804 802 800 798 796 794 792 790 788 787 785 784 782 781 781 780 780 780 780 780 779 782 769 746 744 747 744 746 745 745 746 746 747 749 749 749 748 747 747 747 747 746 747 749 746 744 744 741 740 738 735 737 738 737 737 735 734 734 734 736 735 733 736 737 733 731 734 731 723 723 723 722 727 727 728 730 731 733 734 736 737
816 814 812 810 808 806 804 803 800 799 796 794 792 790 788 787 785 783 781 780 779 779 778 778 779 778 777 778 773 755 743 745 745 745 745 744 745 744 745 747 748 749 749 748 746 745 747 746 746 748 746 744 745 745 740 736 736 736 737 742 739 737 736 733 733 733 734 734 729 733 741 738 733 731 724 720 723 723 724 727 727 729 731 732 734 736 738 738
815 813 811 809 807 805 803 801 798 796 794 792 790 788 786 784 782 781 779 778 777 776 776 776 776 776 776 771 757 748 749 747 745 744 742 742 744 743 744 746 746 748 748 747 745 744 745 745 746 746 743 744 745 741 736 733 735 736 737 741 742 743 739 731 730 731 732 732 727 735 749 742 732 727 719 719 724 725 727 728 728 730 731 733 735 736 738 739
814 812 809 807 805 803 801 799 797 794 791 789 787 785 782 780 778 776 776 774 773 774 774 774 775 774 773 763 749 748 751 747 745 742 737 740 743 741 741 742 744 745 745 745 744 743 744 743 744 745 742 743 742 738 738 738 736 736 738 740 742 748 742 727 726 729 730 729 724 735 750 742 730 724 717 719 723 725 728 729 728 730 731 733 734 736 738 738
812 810 808 806 803 801 799 797 795 792 789 787 784 782 778 776 773 771 771 770 769 771 771 772 772 772 771 760 749 747 747 745 743 738 737 740 743 741 738 739 741 742 743 743 742 742 742 742 743 744 742 739 742 745 746 745 739 737 742 744 742 746 742 727 722 724 727 727 723 734 747 740 730 723 716 717 722 723 726 727 727 729 731 733 734 736 738 740
811 808 806 804 802 799 797 795 793 790 787 784 782 779 775 772 769 767 766 764 765 767 769 771 769 771 771 758 747 745 744 743 739 737 738 739 739 739 737 738 739 740 741 740 740 741 740 741 741 741 740 739 743 749 752 751 746 740 742 746 742 743 744 733 723 719 722 725 724 731 739 735 727 720 714 715 719 722 725 726 727 729 730 732 734 735 738 743
809 807 805 803 800 798 795 793 791 788 786 783 780 776 772 769 766 764 761 760 763 764 767 768 767 770 765 752 747 743 740 740 738 737 737 737 737 736 736 737 737 738 739 738 739 739 739 739 739 738 739 740 741 747 755 755 750 746 744 745 741 740 742 737 728 719 718 724 725 727 732 730 723 717 714 714 716 720 724 726 726 728 730 732 733 735 738 743
809 806 804 801 799 796 794 792 789 786 784 781 778 774 771 768 765 764 761 760 762 764 767 766 767 770 757 745 746 741 736 738 737 736 735 734 735 733 735 736 735 736 738 738 736 736 738 737 738 740 740 741 739 742 749 744 742 747 746 745 743 739 738 736 729 719 716 723 726 728 732 730 723 717 715 715 716 718 721 723 724 727 729 731 733 735 739 741
807 805 803 800 798 795 792 790 788 785 783 779 776 773 769 766 764 763 762 761 763 765 766 763 764 764 750 740 741 736 736 738 736 734 733 731 732 731 733 735 734 734 736 738 736 734 736 737 739 740 736 735 734 735 738 734 733 741 741 740 741 739 737 732 724 716 714 721 725 727 732 729 723 719 715 713 715 717 719 721 725 728 729 731 733 735 737 739
806 804 801 799 796 794 791 789 786 784 782 779 775 771 769 769 768 765 762 762 762 761 760 756 755 753 745 740 735 732 735 736 734 731 730 730 731 731 733 734 734 734 734 735 734 731 733 739 737 731 729 729 731 732 734 733 731 736 739 738 737 737 735 728 722 715 712 720 723 723 727 726 722 720 715 712 714 717 718 721 726 728 728 730 732 734 736 739
805 802 800 797 795 792 790 788 785 783 781 779 776 774 775 776 775 770 764 758 755 755 754 749 749 745 741 737 731 731 735 733 731 728 728 729 730 733 733 733 734 735 733 732 731 730 732 736 729 725 727 727 729 731 732 733 733 735 738 738 738 738 733 726 722 716 712 720 723 721 725 724 719 718 715 712 714 715 716 719 724 726 726 728 731 734 737 739
803 801 798 796 793 791 788 786 783 781 780 778 777 777 777 776 774 772 769 760 750 750 750 744 743 740 735 732 728 733 737 734 730 725 723 726 727 731 731 731 733 731 732 732 730 733 732 727 722 724 725 725 727 729 731 733 734 737 738 739 740 738 734 727 721 716 715 720 722 720 722 721 715 714 714 713 713 713 712 714 718 720 725 729 730 733 737 738
802 799 796 794 791 789 786 783 781 779 778 778 777 776 774 773 772 771 771 765 750 744 744 739 739 737 732 729 726 731 735 734 732 722 719 723 724 726 727 730 732 729 731 731 727 731 731 723 720 723 723 724 728 729 730 733 734 737 739 741 740 735 735 732 723 718 716 718 719 719 722 721 715 713 710 709 710 711 711 713 715 715 719 724 724 728 731 733
800 797 795 791 789 787 784 781 778 777 777 776 775 772 771 771 771 770 769 766 754 742 737 734 733 732 729 725 723 727 729 729 728 719 715 721 722 723 725 727 730 729 728 727 725 726 724 718 717 721 722 724 728 729 730 733 736 737 737 740 739 733 731 728 724 720 717 717 717 719 728 726 718 716 711 705 707 710 711 713 716 716 718 720 721 725 727 728
798 795 792 789 788 784 781 778 775 776 776 774 773 770 771 771 770 770 769 769 761 744 733 731 730 727 723 721 721 722 724 724 721 716 714 716 718 720 722 723 725 727 725 725 729 728 723 717 714 719 722 722 726 728 728 730 737 738 735 734 734 732 729 727 727 726 728 730 719 720 738 735 718 717 715 708 707 711 712 713 715 719 721 721 723 726 727 728
796 793 790 788 785 782 779 776 775 776 775 772 771 770 771 769 768 769 770 775 767 745 733 732 730 725 721 720 719 720 725 721 712 712 714 714 715 716 720 720 720 723 723 724 728 726 721 717 713 717 720 722 725 725 723 725 736 740 731 727 730 730 731 730 730 731 738 739 724 720 738 740 724 715 712 708 709 712 714 714 715 718 721 719 721 723 724 726
794 791 788 785 783 781 779 775 775 776 774 771 769 770 769 767 768 767 771 780 766 741 734 731 726 725 722 719 717 720 723 713 704 707 710 712 714 714 719 720 718 719 719 724 728 720 714 717 716 715 718 721 723 722 720 720 732 736 724 723 729 730 732 732 732 735 736 734 728 724 729 739 735 718 708 708 711 715 718 719 719 719 719 717 717 719 719 721
792 788 785 783 781 780 778 775 775 774 772 770 768 769 767 766 768 765 775 781 755 732 733 729 723 722 720 717 716 716 712 704 704 706 704 709 713 714 718 718 717 717 714 720 725 713 709 715 715 714 717 719 717 716 716 718 728 727 717 720 726 728 730 731 734 736 735 736 739 733 728 740 741 716 706 713 715 719 722 721 719 718 717 715 715 717 717 718
789 786 782 780 777 777 776 774 774 772 770 769 768 768 766 767 767 766 778 775 743 729 733 728 722 721 719 717 714 712 709 705 706 704 702 708 710 711 716 716 714 715 712 714 717 710 707 708 708 712 715 713 712 712 712 717 722 718 714 718 722 726 729 730 735 736 737 744 745 737 730 740 742 716 708 718 717 717 722 720 717 716 716 716 715 717 717 718
786 782 779 777 775 774 774 773 771 770 769 768 768 767 765 767 768 774 781 765 741 734 731 725 724 723 722 720 714 711 712 709 705 703 704 706 709 710 711 711 712 713 712 713 715 709 703 702 703 707 707 707 709 710 710 714 716 713 715 720 724 729 728 729 733 734 743 749 741 734 728 734 742 723 708 713 710 709 716 718 718 716 716 716 715 717 718 717
783 779 776 774 773 773 773 772 770 769 768 768 767 766 766 768 773 780 772 749 739 737 729 726 725 721 721 721 717 712 711 711 705 704 705 705 710 714 711 712 714 714 714 716 716 710 706 705 703 699 699 702 707 710 710 710 712 713 717 723 730 735 734 736 738 738 748 749 734 729 727 731 743 727 703 700 699 700 704 706 711 713 712 712 712 714 715 715
781 777 774 773 772 771 771 770 768 768 768 767 767 766 767 771 775 772 757 741 740 737 731 729 724 719 719 718 717 713 710 710 706 704 705 705 712 716 714 714 714 715 719 719 717 714 710 707 702 697 696 698 705 713 716 713 713 717 720 726 737 744 745 747 747 744 749 744 727 724 728 731 734 718 698 694 693 694 695 693 699 704 706 707 708 710 712 713
779 775 773 772 771 770 769 768 767 768 767 766 767 766 769 774 769 757 749 746 742 734 731 730 723 720 719 716 716 712 709 708 703 703 703 704 711 713 712 711 708 710 715 714 715 718 715 708 702 701 697 694 700 710 717 717 716 718 720 725 735 743 748 751 750 746 746 737 722 722 727 728 723 706 692 689 686 685 688 689 692 695 697 700 702 706 710 713
777 774 773 771 771 769 768 768 767 767 767 767 768 768 770 771 759 747 745 744 737 731 731 729 725 720 715 714 714 709 708 706 699 702 704 705 711 712 710 709 707 707 707 708 713 715 717 712 702 700 697 691 694 701 705 709 713 714 714 719 727 729 734 741 742 741 740 733 725 725 726 723 715 698 686 685 683 681 685 689 691 694 696 699 703 708 711 713
776 774 773 771 770 769 768 768 768 768 769 768 769 772 774 769 758 750 746 741 735 734 732 727 725 722 714 714 714 708 706 704 697 699 704 706 709 709 708 707 706 707 706 708 710 708 713 711 695 691 691 687 692 694 693 703 714 712 709 716 722 717 717 728 733 731 729 726 726 726 719 710 701 691 687 687 686 686 688 691 694 697 700 703 707 710 710 711
775 773 772 771 770 769 768 769 769 769 769 770 773 776 774 766 757 750 743 738 737 737 733 727 723 722 719 716 718 712 705 703 698 697 702 704 706 706 704 702 702 704 704 705 705 705 711 708 691 688 690 685 688 690 689 697 708 710 712 714 711 704 706 721 731 731 729 726 727 726 715 705 699 691 689 689 687 691 694 693 696 698 700 704 706 707 708 709
775 773 772 771 770 770 769 768 769 770 770 773 776 773 768 760 751 747 742 736 736 736 736 734 726 725 726 722 720 715 707 703 699 696 697 701 702 701 701 699 698 699 699 700 701 700 705 703 689 687 691 685 682 685 687 688 693 705 712 706 701 704 708 715 724 732 736 731 728 728 716 707 707 699 693 692 690 694 698 697 699 701 702 704 704 705 707 708
777 775 773 771 771 770 769 769 769 770 771 775 775 766 760 754 745 742 740 737 737 737 738 738 731 727 729 727 722 716 709 705 703 699 697 699 698 696 698 698 695 695 695 698 701 699 700 699 688 682 687 684 679 686 693 688 683 691 698 694 699 713 718 720 724 730 737 735 729 728 722 712 706 699 692 690 689 693 700 701 700 701 701 701 702 704 706 708
777 776 773 771 771 770 770 770 769 771 772 774 773 763 754 749 741 738 738 737 736 737 738 736 732 728 728 726 724 719 713 710 709 705 700 699 697 692 693 695 694 693 693 696 702 700 698 700 693 681 679 681 682 689 697 694 686 686 689 691 696 705 710 715 720 722 727 733 731 728 727 715 699 690 684 682 686 692 698 700 699 697 696 697 699 701 703 706
778 777 774 771 771 770 770 770 769 772 774 771 768 761 752 746 740 735 735 736 735 735 735 733 731 731 727 723 722 721 718 714 711 708 701 698 696 692 691 691 691 692 692 695 698 698 697 699 696 684 677 682 686 686 687 690 692 693 694 697 698 700 703 707 714 716 715 723 729 729 729 712 691 687 683 677 683 691 691 692 694 694 694 695 696 697 699 701
780 779 774 771 771 770 770 771 771 773 773 767 763 759 752 747 741 734 732 733 733 731 729 729 730 731 728 724 722 722 720 715 711 710 703 696 695 692 689 687 688 690 693 696 697 697 698 697 697 691 684 684 681 675 675 679 686 690 692 696 698 698 704 710 718 719 710 713 721 722 722 706 687 688 687 680 685 690 686 685 688 690 691 693 694 695 697 699
782 780 774 771 772 770 771 772 770 771 770 764 758 755 751 747 743 736 731 730 729 727 727 728 729 729 727 727 725 722 720 714 711 709 701 695 693 690 684 683 685 686 689 695 695 693 695 697 700 695 687 682 674 667 669 671 677 683 685 690 693 694 699 707 714 714 709 712 717 716 715 701 685 688 690 684 685 686 685 685 686 686 687 688 690 693 698 702
784 781 773 771 772 771 772 772 768 768 766 758 753 750 748 747 745 738 733 731 728 727 727 728 727 727 726 727 725 721 717 712 709 705 700 695 690 684 681 681 683 684 686 692 693 690 693 698 700 694 684 679 673 667 668 667 673 682 684 686 689 690 692 695 700 702 704 709 712 715 717 700 683 686 690 687 685 685 685 686 685 686 686 686 690 693 698 703
784 782 775 772 771 771 774 774 771 769 763 757 754 748 742 742 744 740 735 732 729 727 728 727 725 725 726 726 724 719 715 712 708 702 698 696 688 681 679 679 681 681 682 686 686 686 692 697 698 697 691 687 684 682 681 676 675 680 683 685 685 686 687 690 696 698 701 709 708 709 713 698 681 684 686 684 686 686 685 684 684 687 688 689 692 695 699 704
784 781 777 773 771 772 774 774 774 772 766 761 758 749 741 739 738 735 734 732 728 727 728 725 723 725 727 726 723 718 714 714 711 702 696 695 689 680 678 679 679 677 676 678 677 680 689 693 694 696 698 697 696 693 689 684 680 680 681 683 683 684 684 687 695 698 703 713 710 702 703 692 679 679 679 680 686 685 684 683 682 685 688 690 694 696 699 703
786 784 781 775 771 771 772 771 772 773 770 767 760 749 744 741 734 729 731 731 727 725 725 723 721 724 727 725 722 719 714 711 709 703 699 698 693 682 678 679 678 674 673 674 674 679 686 689 688 689 689 688 687 684 681 678 679 683 683 681 682 684 683 685 695 697 699 708 707 699 698 690 679 677 677 680 684 683 682 682 681 683 687 690 694 696 699 703
789 790 789 784 778 774 772 770 771 773 771 769 762 751 746 745 738 731 728 727 725 724 724 722 720 721 723 721 720 717 713 709 706 703 701 699 694 684 676 676 676 673 671 672 674 678 684 687 687 684 680 679 678 676 674 671 674 679 681 681 682 684 683 685 691 695 697 703 704 700 700 694 682 677 678 682 685 682 681 682 682 684 687 690 694 697 701 705
791 792 791 790 788 783 778 773 771 772 769 766 761 754 748 747 744 738 732 726 723 723 723 722 720 719 719 719 719 716 713 711 706 703 701 698 695 688 676 672 673 672 671 673 673 676 682 686 686 682 681 682 680 674 669 669 672 674 676 679 681 683 683 681 684 690 692 694 695 697 700 693 680 674 678 686 689 685 685 686 685 687 689 691 695 699 702 706
794 794 791 790 790 788 784 779 774 773 769 763 759 754 752 750 745 741 736 731 726 722 722 722 720 716 717 719 720 718 714 711 707 704 702 700 700 694 682 676 676 675 674 675 673 676 682 684 684 682 681 683 683 678 670 668 676 683 684 683 680 681 683 680 683 691 692 689 689 693 695 687 678 676 682 688 689 687 689 691 689 689 691 693 696 700 704 707
799 798 794 792 790 785 782 778 774 772 768 763 759 755 753 751 746 741 737 733 730 724 721 722 721 717 718 719 719 718 713 711 711 709 705 704 702 696 690 688 686 682 679 676 674 677 681 684 685 680 679 684 685 681 675 675 684 693 695 693 686 683 684 684 688 696 696 692 695 698 694 685 682 686 688 689 690 690 692 693 690 691 693 693 697 701 703 706
802 800 797 795 790 782 779 776 774 772 767 763 761 758 754 751 748 746 738 730 730 729 724 723 721 718 717 717 717 716 710 707 709 707 703 704 702 697 694 694 692 691 688 680 676 677 678 682 683 677 681 689 688 686 683 678 682 690 695 699 696 688 686 689 693 697 695 693 699 703 695 683 683 688 688 689 692 692 693 693 692 693 693 693 698 702 704 707
801 799 797 796 791 783 779 776 774 771 767 764 763 761 757 752 748 747 740 728 728 729 725 722 722 718 717 716 714 710 707 704 703 701 699 700 699 698 698 697 696 698 697 688 683 681 676 677 680 680 686 691 691 691 684 676 685 697 700 703 703 696 691 692 695 700 701 697 696 694 688 683 685 687 684 688 693 693 693 694 693 692 693 695 698 702 704 706